Weather History for Hobbs, NM

Change the Weather History Date:

Thursday, March 13, 2014

  Actual Average Record
Temperature  
Mean Temperature 47 °F -  
Max Temperature 64 °F 65 °F 87 °F (2002)
Min Temperature 30 °F 37 °F 14 °F (1950)
Degree Days  
Heating Degree Days 18    
Moisture  
Dew Point 17 °F    
Average Humidity 31    
Maximum Humidity 48    
Minimum Humidity 18    
Precipitation  
Precipitation 0.00 in - - ()
Sea Level Pressure  
Sea Level Pressure 30.11 in    
Wind  
Wind Speed 7 mph (SSE)    
Max Wind Speed 21 mph    
Max Gust Speed 25 mph    
Visibility 10 miles    
Events      
Averages and records for this station are not official NWS values.
T = Trace of Precipitation, MM = Missing Value Source: NWS Daily Summary

Daily Weather History Graph

Daily Weather History Graph

Search for Another Location

Airport:

Trip Planner

Search our weather history database for the weather conditions in past years. The results will help you decide how hot, cold, wet, or windy it might be!

Date:

Astronomy

Mar. 13, 2014 Rise Set
Actual Time 7:05 AM MDT 6:59 PM MDT
Civil Twilight 6:41 AM MDT 7:23 PM MDT
Nautical Twilight 6:12 AM MDT 7:52 PM MDT
Astronomical Twilight 5:43 AM MDT 8:21 PM MDT
Moon 4:33 PM MDT (3/13) 5:06 AM MDT (3/13)
Length of Visible Light 12h 42m
Length of Day
11h 53m
Waxing Gibbous, 92% of the Moon is Illuminated
Mar 13
Waxing Gibbous
Mar 16
Full
Mar 23
Last Quarter
Mar 30
New
Apr 7
First Quarter

Hourly Weather History & Observations

Time (MDT) Temp. Windchill Dew Point Humidity Pressure Visibility Wind Dir Wind Speed Gust Speed Precip Events Conditions
12:15 AM 35.6 °F 30.7 °F 12.2 °F 38% 30.31 in 10.0 mi SSW 5.8 mph - N/A   Clear
12:35 AM 33.8 °F 27.7 °F 10.4 °F 38% 30.31 in 10.0 mi SSW 6.9 mph - N/A   Clear
12:55 AM 33.8 °F - 10.4 °F 38% 30.30 in 10.0 mi Calm Calm - N/A   Clear
1:15 AM 32.0 °F - 10.4 °F 41% 30.30 in 10.0 mi Calm Calm - N/A   Clear
1:35 AM 33.8 °F - 12.2 °F 41% 30.30 in 10.0 mi Calm Calm - N/A   Clear
1:55 AM 32.0 °F - 10.4 °F 41% 30.29 in 10.0 mi Calm Calm - N/A   Clear
2:15 AM 32.0 °F - 10.4 °F 41% 30.29 in 10.0 mi Calm Calm - N/A   Clear
2:35 AM 32.0 °F 25.6 °F 12.2 °F 44% 30.28 in 10.0 mi SW 6.9 mph - N/A   Clear
2:55 AM 32.0 °F - 12.2 °F 44% 30.27 in 10.0 mi Calm Calm - N/A   Clear
3:15 AM 32.0 °F - 12.2 °F 44% 30.26 in 10.0 mi Calm Calm - N/A   Clear
3:35 AM 32.0 °F - 12.2 °F 44% 30.26 in 10.0 mi Calm Calm - N/A   Clear
3:55 AM 32.0 °F - 12.2 °F 44% 30.25 in 10.0 mi Calm Calm - N/A   Clear
5:50 AM 30.2 °F - 12.2 °F 47% 30.24 in 10.0 mi Calm Calm - N/A   Clear
6:50 AM 30.2 °F - 12.2 °F 47% 30.25 in 10.0 mi Calm Calm - N/A   Clear
7:50 AM 32.0 °F - 14.0 °F 48% 30.26 in 10.0 mi Calm Calm - N/A   Clear
8:50 AM 46.4 °F 42.4 °F 17.6 °F 32% 30.27 in 10.0 mi South 8.1 mph - N/A   Clear
9:50 AM 50.0 °F - 17.6 °F 28% 30.27 in 10.0 mi South 12.7 mph - N/A   Clear
10:50 AM 53.6 °F - 17.6 °F 24% 30.25 in 10.0 mi South 17.3 mph 23.0 mph N/A   Clear
11:50 AM 55.4 °F - 17.6 °F 23% 30.22 in 10.0 mi South 15.0 mph 23.0 mph N/A   Clear
12:50 PM 57.2 °F - 26.6 °F 31% 30.17 in 10.0 mi SSE 20.7 mph 25.3 mph N/A   Clear
1:50 PM 59.0 °F - 17.6 °F 20% 30.13 in 10.0 mi SSE 15.0 mph 23.0 mph N/A   Clear
2:50 PM 62.6 °F - 19.4 °F 19% 30.07 in 10.0 mi SSE 17.3 mph 24.2 mph N/A   Clear
3:50 PM 64.4 °F - 19.4 °F 18% 30.04 in 10.0 mi SSE 11.5 mph 20.7 mph N/A   Clear
4:50 PM 64.4 °F - 21.2 °F 19% 30.01 in 10.0 mi SSE 16.1 mph 24.2 mph N/A   Clear
5:15 PM 62.6 °F - 19.4 °F 19% 29.99 in 10.0 mi SE 17.3 mph 25.3 mph N/A   Clear
5:35 PM 62.6 °F - 19.4 °F 19% 29.99 in 10.0 mi SE 16.1 mph - N/A   Clear
5:50 PM 62.6 °F - 19.4 °F 19% 29.98 in 10.0 mi SSE 18.4 mph 24.2 mph N/A   Clear
5:55 PM 62.6 °F - 19.4 °F 19% 29.98 in 10.0 mi SE 15.0 mph 23.0 mph N/A   Clear
6:15 PM 60.8 °F - 19.4 °F 20% 29.98 in 10.0 mi SE 17.3 mph 23.0 mph N/A   Clear
6:35 PM 59.0 °F - 19.4 °F 22% 29.97 in 10.0 mi SE 16.1 mph 23.0 mph N/A   Clear
6:55 PM 57.2 °F - 19.4 °F 23% 29.97 in 10.0 mi SE 13.8 mph - N/A   Clear
7:15 PM 57.2 °F - 19.4 °F 23% 29.97 in 10.0 mi SE 10.4 mph - N/A   Clear
7:35 PM 55.4 °F - 19.4 °F 25% 29.97 in 10.0 mi SE 12.7 mph - N/A   Clear
7:55 PM 55.4 °F - 19.4 °F 25% 29.97 in 10.0 mi SE 11.5 mph - N/A   Clear
8:15 PM 53.6 °F - 19.4 °F 26% 29.97 in 10.0 mi SE 11.5 mph - N/A   Clear
8:35 PM 53.6 °F - 19.4 °F 26% 29.98 in 10.0 mi SE 12.7 mph - N/A   Clear
8:55 PM 53.6 °F - 19.4 °F 26% 29.98 in 10.0 mi SE 12.7 mph - N/A   Clear
9:15 PM 51.8 °F - 19.4 °F 28% 29.99 in 10.0 mi SE 11.5 mph - N/A   Clear
9:35 PM 50.0 °F - 19.4 °F 30% 29.99 in 10.0 mi SSE 10.4 mph - N/A   Clear
9:55 PM 50.0 °F - 17.6 °F 28% 29.99 in 10.0 mi SE 12.7 mph - N/A   Clear
10:15 PM 50.0 °F - 17.6 °F 28% 30.00 in 10.0 mi SE 11.5 mph - N/A   Clear
10:35 PM 48.2 °F - 17.6 °F 30% 29.99 in 10.0 mi SE 12.7 mph - N/A   Clear
10:55 PM 48.2 °F - 17.6 °F 30% 29.99 in 10.0 mi SE 11.5 mph - N/A   Clear
11:15 PM 48.2 °F - 17.6 °F 30% 29.98 in 10.0 mi SSE 13.8 mph - N/A   Clear
11:35 PM 48.2 °F - 17.6 °F 30% 29.98 in 10.0 mi SSE 12.7 mph - N/A   Clear
11:55 PM 46.4 °F 40.1 °F 19.4 °F 34% 29.97 in 10.0 mi SSE 15.0 mph 19.6 mph N/A   Clear